Printer-friendly version

IAU Minor Planet Center

Minor Planet Center

MPEC 2007-A27 : 2006 SQ372

The following Minor Planet Electronic Circular may be linked-to from your own Web pages, but must not otherwise be redistributed electronically.


Read MPEC 2007-A26 Read MPEC 2007-A28


M.P.E.C. 2007-A27                                Issued 2007 Jan. 8, 21:25 UT

     The Minor Planet Electronic Circulars contain information on unusual
         minor planets and routine data on comets.  They are published
   on behalf of Commission 20 of the International Astronomical Union by the
          Minor Planet Center, Smithsonian Astrophysical Observatory,
                          Cambridge, MA 02138, U.S.A.

             Prepared using the Tamkin Foundation Computer Network

                              MPC@CFA.HARVARD.EDU
          URL http://cfa-www.harvard.edu/iau/mpc.html  ISSN 1523-6714

                                  2006 SQ372

Observations:
     K06Sb2Q  C2005 09 13.15298 20 52 50.55 +00 48 25.9          21.8 V EA027705
     K06Sb2Q  C2005 09 22.14582 20 52 14.80 +00 40 09.1          22.0 V EA027705
     K06Sb2Q  C2005 10 02.20372 20 51 46.99 +00 30 54.8          22.1 V EA027705
     K06Sb2Q  C2005 10 11.16565 20 51 34.40 +00 22 58.2          22.5 V EA027705
     K06Sb2Q  C2005 10 26.10019 20 51 41.09 +00 10 56.3          22.2 V EA027705
     K06Sb2Q  C2005 10 31.08454 20 51 51.28 +00 07 22.8          22.2 V EA027705
     K06Sb2Q  C2005 11 02.17411 20 51 56.74 +00 05 58.3          22.0 V EA027705
     K06Sb2Q  C2005 11 24.09428 20 53 35.80 -00 05 21.7          22.1 V EA027705
     K06Sb2Q  C2005 11 25.11783 20 53 42.20 -00 05 43.3          22.1 V EA027705
     K06Sb2Q  C2005 11 30.08067 20 54 15.44 -00 07 13.9          22.1 V EA027705
     K06Sb2Q* C2006 09 27.12661 21 09 20.29 +01 09 36.0          22.1 V EA027705
     K06Sb2Q  C2006 09 29.13928 21 09 13.81 +01 07 42.7          22.1 V EA027705
     K06Sb2Q  C2006 10 01.13632 21 09 07.93 +01 05 51.0          21.8 V EA027705
     K06Sb2Q  C2006 10 03.20075 21 09 02.39 +01 03 55.9          21.6 V EA027705
     K06Sb2Q  C2006 10 12.13642 21 08 45.42 +00 55 51.2          21.9 V EA027705
     K06Sb2Q  C2006 10 21.12984 21 08 40.33 +00 48 12.7          22.1 V EA027705
     K06Sb2Q  C2006 10 23.11678 21 08 40.91 +00 46 36.7          22.1 V EA027705
     K06Sb2Q  C2006 10 28.12159 21 08 45.18 +00 42 44.9          22.1 V EA027705
     K06Sb2Q  C2006 11 14.11700 21 09 29.67 +00 31 46.7          22.4 V EA027705
     K06Sb2Q  C2006 11 22.12443 21 10 06.51 +00 27 57.7          22.2 V EA027705

Observer details:
705 Apache Point.  Observer SDSS Collaboration.  Measurers A. C. Becker,
    A. W. Puckett, J. Kubica.  2.5-m f/5 Ritchey-Chretien + CCD.

Orbital elements:
2006 SQ372
Epoch 2007 Apr. 10.0 TT = JDT 2454200.5                 MPC
M   0.00854              (2000.0)            P               Q
n   0.00003553     Peri.  122.43818     +0.74909496     +0.65497501
a 916.4416600      Node   197.33360     -0.66217367     +0.74473283
e   0.9736311      Incl.   19.47294     +0.01956435     +0.12798729
P 27740            H    8.0           G   0.15
Residuals in seconds of arc
050913 705  0.1+  0.0     051124 705  0.0   0.1-    061012 705  0.0   0.1-
050922 705  0.0   0.2+    051125 705  0.1-  0.1-    061021 705  0.1-  0.0
051002 705  0.0   0.1-    051130 705  0.2+  0.0     061023 705  0.1-  0.0
051011 705  0.2-  0.0     060927 705  0.0   0.1+    061028 705  0.1+  0.0
051026 705  0.0   0.1+    060929 705  0.1-  0.0     061114 705  0.1+  0.0
051031 705  0.1+  0.0     061001 705  0.0   0.1+    061122 705  0.1+  0.1+
051102 705  0.1+  0.0     061003 705  0.1-  0.2-

Ephemeris:
2006 SQ372               a,e,i = 916.44, 0.97, 19                q = 24.166
Date    TT    R. A. (2000) Decl.     Delta      r     Elong.  Phase     V
2007 03 21    21 30.01   +01 24.1   24.961   24.178    37.4     1.4    22.1
2007 03 31    21 31.55   +01 34.7   24.860   24.179    46.1     1.7    22.1
2007 04 10    21 32.90   +01 45.3   24.740   24.180    55.0     1.9    22.1
2007 04 20    21 34.05   +01 55.5   24.604   24.181    64.0     2.1    22.1
2007 04 30    21 34.97   +02 05.0   24.456   24.182    73.1     2.3    22.1
2007 05 10    21 35.64   +02 13.7   24.300   24.184    82.2     2.4    22.1
2007 05 20    21 36.07   +02 21.3   24.140   24.185    91.3     2.4    22.1
2007 05 30    21 36.24   +02 27.6   23.981   24.186   100.5     2.4    22.1
2007 06 09    21 36.16   +02 32.4   23.827   24.188   109.7     2.3    22.1
2007 06 19    21 35.84   +02 35.5   23.683   24.189   118.8     2.1    22.0
2007 06 29    21 35.31   +02 37.0   23.553   24.191   127.9     1.9    22.0
2007 07 09    21 34.58   +02 36.7   23.440   24.192   136.9     1.6    22.0
2007 07 19    21 33.70   +02 34.6   23.348   24.194   145.6     1.4    21.9
2007 07 29    21 32.70   +02 30.9   23.281   24.196   153.8     1.1    21.9
2007 08 08    21 31.62   +02 25.6   23.239   24.198   160.5     0.8    21.9
2007 08 18    21 30.51   +02 18.9   23.225   24.199   163.8     0.7    21.9
2007 08 28    21 29.43   +02 11.1   23.240   24.201   161.7     0.8    21.9
2007 09 07    21 28.41   +02 02.4   23.282   24.203   155.5     1.0    21.9
2007 09 17    21 27.51   +01 53.1   23.352   24.205   147.4     1.3    21.9
2007 09 27    21 26.77   +01 43.6   23.446   24.207   138.6     1.6    22.0
2007 10 07    21 26.22   +01 34.1   23.563   24.209   129.3     1.8    22.0
2007 10 17    21 25.90   +01 25.1   23.699   24.211   119.9     2.0    22.0
2007 10 27    21 25.83   +01 16.8   23.849   24.213   110.4     2.2    22.1
2007 11 06    21 26.02   +01 09.5   24.010   24.215   100.8     2.3    22.1
2007 11 16    21 26.48   +01 03.5   24.177   24.218    91.2     2.3    22.1
2007 11 26    21 27.20   +00 58.9   24.345   24.220    81.6     2.3    22.1
2007 12 06    21 28.17   +00 55.8   24.508   24.222    72.0     2.2    22.1
2007 12 16    21 29.37   +00 54.5   24.663   24.225    62.5     2.1    22.1
2007 12 26    21 30.78   +00 54.8   24.804   24.227    53.1     1.9    22.1
2008 01 05    21 32.37   +00 56.9   24.928   24.230    43.9     1.6    22.1
2008 01 15    21 34.11   +01 00.6   25.032   24.232    35.0     1.3    22.1

Brian G. Marsden             (C) Copyright 2007 MPC           M.P.E.C. 2007-A27

Read MPEC 2007-A26 Read MPEC 2007-A28


Our Web policy. Index to the CBAT/MPC/ICQ pages.


Valid HTML 4.01!